EHI
9 4 1 0 0 0 0 0 0 0 0 0 0 0 0 0 0 0 0 0 0 0 0 0 0 0 0 0 1 3 3 2 1 1 2 4 4 3 1 0 0 0 0
18 8 1 0 0 0 0 0 0 0 0 0 0 0 0 0 0 0 0 0 0 0 0 0 0 0 0 0 0 1 1 1 0 0 1 2 3 2 1 0 0 0 0
23 10 1 0 0 0 0 0 0 0 0 0 0 0 0 0 0 0 0 0 0 0 0 0 0 0 0 0 0 0 0 0 0 0 0 0 1 1 0 0 0 0 0
16 7 1 1 0 0 0 0 0 0 0 0 0 0 0 0 0 0 0 0 0 0 0 0 0 0 0 0 0 0 0 0 0 0 0 0 0 0 0 0 0 0 0
9 6 5 5 3 0 0 0 0 0 0 0 0 0 0 0 0 0 0 0 0 0 0 0 0 0 0 0 0 0 0 0 0 0 0 0 0 0 0 0 0 0 0
12 11 12 11 6 0 0 0 0 0 0 0 0 0 0 0 0 0 0 0 0 0 0 0 0 0 0 0 0 0 0 0 0 0 0 0 0 0 0 0 0 0 0
20 19 17 15 8 0 0 0 0 0 0 0 0 0 0 0 0 0 0 0 0 0 0 0 0 0 0 0 0 0 0 0 0 0 0 0 0 0 0 0 0 0 0
24 22 17 13 8 1 0 0 0 0 0 0 0 0 0 0 0 0 0 0 0 0 0 0 0 0 0 0 0 0 0 0 0 0 0 0 0 0 0 0 0 0 0
17 18 13 7 5 1 0 0 0 0 0 0 0 0 0 0 0 0 0 0 0 0 0 0 0 0 0 0 0 0 0 0 0 0 0 0 0 0 0 0 0 0 0
6 9 8 4 2 0 0 0 0 0 0 0 0 0 0 0 0 1 1 0 0 0 0 0 0 0 0 0 0 0 0 0 0 0 0 0 0 0 0 0 0 0 0
1 3 6 6 4 2 2 3 2 0 0 0 0 0 0 0 0 1 1 0 0 0 0 0 0 0 0 0 0 0 0 0 1 2 1 0 0 0 0 0 0 0 0
0 1 3 6 7 7 10 10 4 1 1 0 0 0 0 0 0 0 0 0 0 0 0 0 0 0 0 0 0 0 0 0 2 3 2 0 0 0 0 0 0 0 0
0 0 1 4 6 12 18 14 5 3 2 1 0 0 0 0 0 0 0 0 0 0 0 0 0 0 0 0 0 0 0 0 1 2 1 0 0 0 0 0 0 0 0
1 1 1 2 4 14 23 19 8 4 3 1 0 0 0 0 0 0 0 0 0 0 0 0 0 0 0 0 0 0 0 0 0 0 0 0 0 0 0 0 0 0 0
2 3 2 2 4 18 32 26 9 5 5 3 1 0 0 0 0 0 0 0 0 0 0 0 0 0 0 0 0 0 0 0 0 0 0 0 0 0 0 0 0 0 0
1 2 1 1 4 18 32 23 9 7 8 4 1 0 0 0 0 0 0 0 0 0 0 0 0 0 0 0 0 0 0 0 0 0 0 0 0 0 0 0 0 0 0
1 0 0 1 2 10 17 14 8 9 8 4 1 0 0 0 0 0 0 0 0 0 0 0 0 0 0 0 0 0 0 0 0 0 0 0 0 0 0 0 0 0 0
1 1 0 0 1 3 7 11 9 10 13 11 4 0 0 0 0 0 0 0 0 0 0 0 0 0 0 0 0 0 0 0 0 0 0 0 0 0 0 0 0 0 0
2 2 1 1 2 4 9 18 21 21 28 27 14 5 1 0 1 2 1 0 0 0 0 0 0 0 0 0 0 0 0 0 0 0 0 0 0 0 0 0 0 1 1
7 5 3 2 5 14 28 44 52 52 53 53 38 19 8 6 8 8 4 1 1 1 0 0 0 0 0 0 0 0 0 0 0 0 0 0 0 0 0 0 0 1 2
19 19 14 9 10 28 55 75 83 84 83 81 69 47 29 20 18 17 9 3 2 2 1 0 0 0 0 0 0 0 0 0 0 0 0 0 0 0 0 0 1 1 1
29 30 28 24 22 35 65 88 96 98 98 97 90 76 54 31 21 18 11 4 2 2 1 0 0 0 0 0 0 0 0 0 0 0 0 0 0 0 0 1 2 1 1
19 23 29 34 36 42 62 84 94 96 95 95 93 83 59 32 18 14 7 2 1 1 0 0 0 0 0 0 0 0 0 0 0 0 0 0 0 0 0 0 1 1 1
5 8 15 25 37 46 58 73 85 89 86 84 80 70 50 30 19 11 4 1 0 0 0 0 0 0 0 0 0 0 0 0 0 0 0 0 0 0 0 0 0 0 1
0 1 3 9 20 36 48 59 72 76 71 65 58 50 39 29 21 13 5 1 0 0 0 0 0 0 0 0 0 0 0 0 0 0 0 0 0 0 0 0 0 0 0
0 0 0 1 8 23 38 51 61 64 58 49 41 34 30 27 22 13 5 1 0 0 0 0 0 0 0 0 0 0 0 0 0 0 0 0 0 0 0 0 0 0 0
Wind_Speed
12 14 15 14 13 12 12 12 12 12 11 11 10 10 11 11 10 10 9 9 8 8 7 6 6 6 6 7 6 6 6 6 6 5 6 6 7 8 9 8 6 5 7
16 16 15 14 13 12 12 11 11 11 10 10 10 10 11 10 10 9 9 9 9 9 8 7 6 7 8 8 8 7 6 6 4 3 4 6 8 9 10 11 11 6 8
17 16 14 15 13 12 12 11 10 10 10 10 10 10 10 9 9 10 9 9 9 9 9 8 7 7 8 9 8 7 6 5 2 1 1 3 5 9 10 10 11 10 9
18 15 14 15 13 12 11 11 10 10 10 10 10 10 10 9 9 10 9 9 9 10 9 8 8 8 8 9 8 7 5 3 1 3 1 3 5 8 8 9 10 10 10
16 14 15 16 13 12 11 10 10 9 9 9 10 10 10 10 10 10 10 10 10 10 10 9 8 8 8 8 7 6 4 1 3 4 2 5 5 6 7 7 8 9 9
15 15 16 15 14 12 11 10 10 9 10 10 9 9 9 9 9 10 10 10 11 10 10 10 9 8 7 7 6 5 3 1 4 2 5 5 4 5 5 5 6 7 7
15 15 15 15 14 12 11 10 10 9 10 10 9 9 8 8 9 9 10 10 10 10 9 9 9 8 8 7 6 5 2 1 3 1 5 5 4 5 5 4 4 5 5
15 16 14 14 13 12 11 11 10 10 10 10 9 8 8 8 8 9 10 11 10 9 8 7 7 7 7 7 6 4 2 2 2 3 6 5 6 6 5 4 3 3 3
14 16 13 12 11 11 11 11 11 11 11 10 10 9 8 7 8 10 10 11 10 9 7 6 5 5 5 5 4 3 2 3 2 2 8 5 6 6 5 4 3 3 2
11 14 15 14 12 11 9 11 12 12 11 11 10 10 9 8 8 9 10 9 9 8 7 5 4 4 5 5 4 4 4 5 2 5 5 6 8 6 5 4 4 3 2
8 9 12 12 12 11 11 12 11 11 11 10 9 10 9 6 7 7 9 10 8 8 7 6 5 5 5 6 7 6 5 4 3 4 5 7 7 5 4 3 3 3 3
8 8 8 9 10 10 8 9 7 7 7 7 7 8 6 5 4 7 12 11 9 8 7 7 7 7 6 4 6 7 4 6 3 6 5 7 5 2 2 3 2 2 2
10 9 9 9 9 9 6 7 4 4 5 6 6 8 6 5 4 7 5 6 5 7 5 6 6 5 7 5 5 5 2 2 3 6 5 6 3 1 2 3 3 2 2
10 10 9 9 8 8 8 6 4 4 4 4 6 9 7 4 5 7 6 7 6 4 5 6 5 8 6 5 3 3 4 2 4 5 4 5 3 0 2 3 4 4 3
8 9 10 10 9 8 7 5 6 6 6 6 5 6 7 5 4 4 4 5 6 5 4 3 4 3 2 2 2 4 3 5 5 5 4 4 2 1 0 1 3 4 4
7 9 9 9 9 10 9 7 5 6 6 6 5 5 6 5 4 3 3 4 4 4 4 4 2 3 2 3 4 3 2 4 4 4 5 4 4 3 2 2 1 3 4
2 5 8 9 9 11 11 10 6 5 7 6 5 7 7 6 5 4 3 5 3 3 4 2 1 3 3 3 1 1 3 3 1 2 5 5 4 5 5 4 3 2 2
5 3 2 7 7 7 7 8 6 6 6 5 5 5 6 6 6 4 2 4 3 3 2 2 2 2 2 2 2 1 2 2 2 1 2 4 5 5 5 5 5 4 4
5 5 4 3 5 6 7 6 6 6 6 5 5 4 4 5 5 3 3 2 3 2 2 3 2 1 1 1 1 1 1 2 2 3 4 3 5 5 5 5 7 6 5
6 6 6 4 6 6 5 5 5 5 6 5 5 5 4 3 4 4 3 2 2 3 1 1 2 1 1 0 2 1 2 2 2 2 2 1 2 5 6 6 5 4 6
8 7 7 7 6 5 5 5 5 5 5 5 5 7 6 4 4 5 3 2 1 2 3 2 2 2 1 1 2 2 2 2 3 3 3 2 2 4 5 6 5 5 4
11 11 11 9 7 6 5 5 5 6 5 5 5 5 6 5 4 4 4 3 2 1 1 1 3 2 1 2 2 1 2 3 3 2 2 2 3 2 3 5 7 6 6
10 12 12 13 12 7 6 5 4 4 4 4 5 4 4 5 5 3 4 4 3 3 3 3 3 5 4 3 3 3 3 3 2 3 3 3 3 2 2 1 3 6 7
11 11 13 13 13 11 6 4 7 6 5 5 4 4 3 3 4 4 3 3 3 3 4 5 6 5 5 4 3 2 3 3 2 1 3 2 3 3 2 2 1 1 5
11 10 10 11 11 10 7 3 4 5 4 4 5 6 4 2 3 4 3 2 1 1 3 5 4 5 4 4 3 2 2 1 2 2 2 3 2 1 2 2 2 2 3
11 10 10 10 10 9 8 4 3 6 6 7 6 6 5 3 2 4 4 2 1 1 3 3 2 3 3 4 3 3 2 2 2 2 3 3 3 3 3 3 2 2 2
Wind_Direction
128 130 140 133 128 124 121 118 116 115 113 112 109 104 99 95 92 92 94 93 91 92 97 105 114 122 122 117 107 97 89 87 78 68 62 61 57 50 45 40 43 74 75
128 130 140 136 132 129 125 122 119 119 118 115 110 105 100 97 93 91 94 94 91 90 91 95 102 113 119 119 115 109 106 102 98 87 87 83 70 60 55 54 60 67 69
126 132 141 140 137 135 131 127 125 124 121 117 115 110 106 104 100 93 90 93 93 90 88 90 95 105 118 123 122 120 115 107 103 59 73 96 85 68 62 61 63 65 65
130 140 143 144 143 140 138 135 132 129 126 124 120 115 113 109 104 98 93 91 93 93 91 91 96 104 117 125 126 125 119 115 2 313 16 99 86 78 71 67 66 65 62
135 142 137 149 148 147 146 145 143 141 137 132 126 121 118 112 106 102 97 94 93 92 89 87 92 105 117 126 132 131 126 120 312 312 53 86 84 85 79 74 71 69 66
136 135 142 154 156 158 158 156 155 153 147 141 135 132 127 121 115 110 104 98 94 91 86 83 86 97 113 126 132 134 141 259 312 330 64 89 97 88 83 82 77 71 69
139 135 147 156 161 166 168 167 165 161 156 151 147 145 141 134 128 123 117 108 99 92 86 82 81 86 99 115 127 134 150 276 278 16 84 89 90 84 76 77 80 77 72
138 137 144 156 163 169 173 172 172 169 166 161 158 155 151 146 143 136 130 121 111 103 94 86 84 86 96 109 123 140 161 264 240 126 104 93 78 72 64 60 66 82 87
140 139 147 159 165 172 176 176 176 177 174 170 164 160 155 151 147 144 139 132 124 118 109 101 99 103 111 124 134 169 220 258 278 133 110 96 83 73 66 57 50 69 95
149 148 156 164 168 171 177 182 182 182 180 176 170 165 159 159 157 153 151 141 138 134 129 126 130 139 142 152 176 218 258 294 256 113 106 105 94 85 75 66 57 59 76
155 152 157 163 166 173 175 175 179 184 183 176 173 172 168 179 175 176 161 150 155 151 152 163 175 181 179 188 208 226 252 253 197 108 96 108 105 102 104 94 76 61 61
164 163 154 161 163 169 169 153 174 179 174 186 181 176 195 208 189 166 143 160 167 170 179 196 204 206 210 206 220 223 245 248 169 102 94 101 102 116 142 140 128 109 87
171 169 167 168 166 158 144 155 177 169 163 197 189 181 198 191 179 142 159 159 177 188 200 204 213 221 213 209 197 197 222 338 63 93 93 91 89 152 212 195 176 168 174
171 170 173 171 168 160 155 162 166 159 164 181 193 199 196 187 198 169 173 173 182 196 206 192 214 216 216 180 204 171 134 69 69 96 97 89 78 24 238 221 201 188 190
164 172 177 173 174 166 151 161 177 164 168 185 196 210 194 180 201 185 177 165 183 188 176 236 240 196 71 74 51 46 82 90 88 95 116 113 104 71 8 232 207 196 200
166 179 169 175 176 168 161 181 183 171 168 181 185 213 197 181 189 171 195 158 194 170 165 217 228 105 83 63 36 30 41 94 109 132 137 137 124 99 81 75 136 192 202
169 190 167 176 186 183 176 179 174 174 175 181 180 211 200 182 186 181 202 156 193 172 181 212 116 106 110 111 148 327 71 48 41 121 144 154 144 113 99 91 95 116 152
1 330 189 183 189 188 171 169 171 183 173 173 173 203 205 183 188 189 179 146 166 156 160 113 65 98 131 166 183 186 134 116 262 21 222 167 152 139 119 111 109 111 116
339 322 302 222 201 198 178 170 171 176 165 169 170 186 209 187 188 163 133 121 144 128 133 138 142 151 144 165 159 154 240 173 174 227 254 158 146 152 141 130 119 115 120
328 300 280 252 218 211 191 177 170 171 170 169 169 178 192 174 164 122 119 128 131 128 123 110 130 104 54 59 280 211 201 183 223 235 310 346 193 156 148 150 143 129 128
336 316 293 272 233 215 197 185 174 176 171 164 165 171 171 165 149 125 127 143 116 137 155 169 111 92 31 336 322 332 322 255 244 203 195 255 265 146 150 167 166 153 144
343 336 318 302 275 235 214 198 190 173 172 164 159 158 155 162 164 152 150 155 150 117 116 135 120 136 212 245 218 202 319 322 294 264 194 179 274 188 208 198 169 159 161
343 340 333 327 316 286 231 196 189 176 165 157 162 156 161 164 164 156 163 166 170 167 178 196 184 180 203 232 230 172 177 228 280 301 251 205 222 238 231 260 188 169 155
349 342 334 329 326 316 297 215 184 173 175 168 154 139 149 159 150 144 141 152 171 174 196 213 211 199 198 216 239 226 209 196 173 281 313 276 229 207 211 277 284 177 154
355 349 339 333 331 327 318 281 188 157 147 135 132 133 128 109 105 109 106 97 110 185 220 233 225 199 191 204 216 217 244 273 230 188 253 295 305 231 195 247 261 256 159
359 355 350 345 344 346 351 5 106 127 128 122 123 127 117 100 78 86 94 89 39 316 269 249 198 185 186 204 212 207 198 213 233 198 217 247 265 271 228 210 230 239 189